When you browse on this site, cookies collect data to enhance your experience and personalize the content and advertising you see.
Visit our Privacy Policy to learn more. By continuing to use the site, you agree to this use of cookies and data.
  • In Austria
  • List of Countries
  • For 7 days
  • Water Temperature
  • Satellite Maps
  • Weather Map
  • News
  • Weather Widgets
  • user-avatar
    Login

    Hourly Weather Zamoshe

    Today, 16 July, Tuesday

    Time Temperature Precipitation Wind Pressure Humidity
    00:00 +13°C° 0 mm 1 mps 745 mmHg 91%
    01:00 +13°C° 0 mm 1 mps 745 mmHg 92%
    02:00 +12°C° 0 mm 1 mps 745 mmHg 91%
    03:00 +12°C° 0 mm 1 mps 745 mmHg 91%
    04:00 +12°C° 0 mm 1 mps 745 mmHg 91%
    05:00 +12°C° 0 mm 1 mps 745 mmHg 91%
    06:00 +14°C° 0 mm 1 mps 745 mmHg 85%
    07:00 +16°C° 0 mm 1 mps 745 mmHg 79%
    08:00 +19°C° 0 mm 1 mps 745 mmHg 73%
    09:00 +20°C° 0 mm 1 mps 745 mmHg 66%
    10:00 +21°C° 0 mm 2 mps 745 mmHg 59%
    11:00 +23°C° 0 mm 2 mps 744 mmHg 52%
    12:00 +24°C° 0.1 mm 2 mps 744 mmHg 53%
    13:00 +24°C° 0.1 mm 2 mps 744 mmHg 54%
    14:00 +24°C° 0.1 mm 3 mps 743 mmHg 55%
    15:00 +24°C° 0.2 mm 3 mps 743 mmHg 58%
    16:00 +22°C° 0.2 mm 3 mps 743 mmHg 61%
    17:00 +22°C° 0.2 mm 3 mps 743 mmHg 64%
    18:00 +20°C° 0.4 mm 3 mps 743 mmHg 72%
    19:00 +19°C° 0.4 mm 2 mps 742 mmHg 79%
    20:00 +17°C° 0.4 mm 2 mps 742 mmHg 87%
    21:00 +16°C° 0.5 mm 2 mps 742 mmHg 89%
    22:00 +16°C° 0.5 mm 3 mps 742 mmHg 91%
    23:00 +14°C° 0.5 mm 3 mps 742 mmHg 93%

    Tomorrow, 17 July, Wednesday

    Time Temperature Precipitation Wind Pressure Humidity
    00:00 +13°C° 0.3 mm 3 mps 742 mmHg 94%
    01:00 +12°C° 0.3 mm 3 mps 742 mmHg 95%
    02:00 +12°C° 0.3 mm 2 mps 742 mmHg 95%
    03:00 +12°C° 0 mm 2 mps 742 mmHg 96%
    04:00 +10°C° 0 mm 2 mps 742 mmHg 97%
    05:00 +10°C° 0 mm 2 mps 742 mmHg 98%
    06:00 +11°C° 0 mm 3 mps 742 mmHg 95%
    07:00 +12°C° 0 mm 3 mps 742 mmHg 92%
    08:00 +14°C° 0 mm 3 mps 742 mmHg 89%
    09:00 +16°C° 0.3 mm 3 mps 742 mmHg 83%
    10:00 +17°C° 0.3 mm 3 mps 742 mmHg 78%
    11:00 +18°C° 0.3 mm 3 mps 742 mmHg 73%
    12:00 +18°C° 0.7 mm 4 mps 742 mmHg 73%
    13:00 +18°C° 0.7 mm 4 mps 742 mmHg 72%
    14:00 +18°C° 0.7 mm 4 mps 741 mmHg 72%
    15:00 +18°C° 0.3 mm 4 mps 741 mmHg 73%
    16:00 +18°C° 0.3 mm 4 mps 741 mmHg 74%
    17:00 +18°C° 0.3 mm 3 mps 741 mmHg 74%
    18:00 +17°C° 0.4 mm 3 mps 741 mmHg 80%
    19:00 +16°C° 0.4 mm 3 mps 741 mmHg 86%
    20:00 +15°C° 0.4 mm 2 mps 741 mmHg 92%
    21:00 +14°C° 0 mm 2 mps 741 mmHg 94%
    22:00 +13°C° 0 mm 2 mps 741 mmHg 95%
    23:00 +12°C° 0 mm 2 mps 741 mmHg 97%

    Day after tomorrow, 18 July, Thursday

    Time Temperature Precipitation Wind Pressure Humidity
    00:00 +11°C° 0 mm 3 mps 741 mmHg 97%
    01:00 +11°C° 0 mm 3 mps 741 mmHg 97%
    02:00 +10°C° 0 mm 3 mps 742 mmHg 97%
    03:00 +10°C° 0 mm 3 mps 742 mmHg 98%
    04:00 +10°C° 0 mm 3 mps 742 mmHg 98%
    05:00 +10°C° 0 mm 3 mps 742 mmHg 99%
    06:00 +11°C° 0 mm 3 mps 742 mmHg 97%
    07:00 +12°C° 0 mm 3 mps 742 mmHg 96%
    08:00 +13°C° 0 mm 4 mps 742 mmHg 94%
    09:00 +13°C° 0 mm 4 mps 742 mmHg 92%
    10:00 +14°C° 0 mm 4 mps 743 mmHg 89%
    11:00 +15°C° 0 mm 4 mps 743 mmHg 86%
    12:00 +17°C° 0 mm 4 mps 743 mmHg 82%
    13:00 +17°C° 0 mm 5 mps 743 mmHg 78%
    14:00 +19°C° 0 mm 5 mps 743 mmHg 74%
    15:00 +19°C° 0.2 mm 5 mps 743 mmHg 75%
    16:00 +19°C° 0.2 mm 4 mps 743 mmHg 76%
    17:00 +20°C° 0.2 mm 4 mps 743 mmHg 77%
    18:00 +19°C° 0.3 mm 4 mps 743 mmHg 83%
    19:00 +18°C° 0.3 mm 3 mps 743 mmHg 88%
    20:00 +17°C° 0.3 mm 3 mps 743 mmHg 93%
    21:00 +16°C° 0 mm 3 mps 744 mmHg 94%
    22:00 +16°C° 0 mm 3 mps 744 mmHg 95%
    23:00 +14°C° 0 mm 3 mps 744 mmHg 97%

    19 July, Friday

    Time Temperature Precipitation Wind Pressure Humidity
    00:00 +14°C° 0 mm 3 mps 744 mmHg 97%
    01:00 +14°C° 0 mm 3 mps 745 mmHg 97%
    02:00 +13°C° 0 mm 3 mps 745 mmHg 97%
    03:00 +13°C° 0 mm 3 mps 745 mmHg 97%
    04:00 +13°C° 0 mm 3 mps 745 mmHg 97%
    05:00 +12°C° 0 mm 3 mps 746 mmHg 97%
    06:00 +14°C° 0 mm 3 mps 746 mmHg 92%
    07:00 +16°C° 0 mm 3 mps 746 mmHg 87%
    08:00 +18°C° 0 mm 3 mps 746 mmHg 82%
    09:00 +19°C° 0 mm 4 mps 746 mmHg 73%
    10:00 +21°C° 0 mm 4 mps 747 mmHg 63%
    11:00 +23°C° 0 mm 4 mps 747 mmHg 54%
    12:00 +23°C° 0 mm 4 mps 747 mmHg 54%
    13:00 +25°C° 0 mm 4 mps 747 mmHg 53%
    14:00 +25°C° 0 mm 4 mps 747 mmHg 53%
    15:00 +25°C° 0.1 mm 4 mps 747 mmHg 55%
    16:00 +25°C° 0 mm 4 mps 747 mmHg 57%
    17:00 +24°C° 0 mm 3 mps 747 mmHg 59%
    18:00 +22°C° 0 mm 3 mps 747 mmHg 67%
    19:00 +20°C° 0 mm 2 mps 747 mmHg 74%
    20:00 +18°C° 0 mm 2 mps 747 mmHg 82%
    21:00 +17°C° 0 mm 2 mps 748 mmHg 85%
    22:00 +16°C° 0 mm 1 mps 748 mmHg 87%
    23:00 +15°C° 0 mm 1 mps 749 mmHg 90%

    20 July, Saturday

    Time Temperature Precipitation Wind Pressure Humidity
    00:00 +15°C° 0 mm 1 mps 749 mmHg 90%
    01:00 +15°C° 0 mm 1 mps 749 mmHg 90%
    02:00 +14°C° 0 mm 1 mps 749 mmHg 91%
    03:00 +14°C° 0 mm 1 mps 749 mmHg 90%
    04:00 +14°C° 0 mm 1 mps 749 mmHg 90%
    05:00 +14°C° 0 mm 1 mps 749 mmHg 89%
    06:00 +16°C° 0 mm 1 mps 749 mmHg 81%
    07:00 +19°C° 0 mm 1 mps 749 mmHg 73%
    08:00 +21°C° 0 mm 1 mps 749 mmHg 65%
    09:00 +23°C° 0 mm 1 mps 749 mmHg 60%
    10:00 +24°C° 0 mm 1 mps 750 mmHg 56%
    11:00 +26°C° 0 mm 1 mps 750 mmHg 51%
    12:00 +26°C° 0 mm 1 mps 749 mmHg 50%
    13:00 +26°C° 0 mm 1 mps 749 mmHg 49%
    14:00 +27°C° 0 mm 1 mps 749 mmHg 48%
    15:00 +26°C° 0.1 mm 1 mps 749 mmHg 54%
    16:00 +25°C° 0.1 mm 1 mps 749 mmHg 61%
    17:00 +25°C° 0.1 mm 1 mps 749 mmHg 67%
    18:00 +23°C° 0.2 mm 1 mps 749 mmHg 73%
    19:00 +21°C° 0.2 mm 1 mps 749 mmHg 80%
    20:00 +20°C° 0.2 mm 1 mps 749 mmHg 87%
    21:00 +19°C° 0 mm 1 mps 749 mmHg 89%
    22:00 +18°C° 0 mm 1 mps 749 mmHg 91%
    23:00 +18°C° 0 mm 1 mps 750 mmHg 93%

    21 July, Sunday

    Time Temperature Precipitation Wind Pressure Humidity
    00:00 +15°C° 0 mm 0 mps 750 mmHg 93%
    01:00 +15°C° 0 mm 0 mps 750 mmHg 93%
    02:00 +14°C° 0 mm 0 mps 750 mmHg 93%
    03:00 +14°C° 0 mm 0 mps 750 mmHg 93%
    04:00 +14°C° 0 mm 0 mps 750 mmHg 93%
    05:00 +14°C° 0 mm 0 mps 750 mmHg 93%
    06:00 +16°C° 0 mm 0 mps 750 mmHg 88%
    07:00 +18°C° 0 mm 0 mps 750 mmHg 82%
    08:00 +20°C° 0 mm 0 mps 750 mmHg 76%
    09:00 +22°C° 0.2 mm 0 mps 750 mmHg 70%
    10:00 +23°C° 0.2 mm 0 mps 750 mmHg 64%
    11:00 +25°C° 0.2 mm 0 mps 750 mmHg 57%
    12:00 +25°C° 0.1 mm 0 mps 750 mmHg 54%
    13:00 +28°C° 0.1 mm 1 mps 750 mmHg 50%
    14:00 +28°C° 0.1 mm 1 mps 750 mmHg 46%
    15:00 +28°C° 0 mm 1 mps 750 mmHg 49%
    16:00 +27°C° 0 mm 1 mps 749 mmHg 52%
    17:00 +27°C° 0 mm 1 mps 749 mmHg 55%
    18:00 +25°C° 0 mm 1 mps 749 mmHg 62%
    19:00 +23°C° 0 mm 1 mps 749 mmHg 68%
    20:00 +21°C° 0 mm 1 mps 749 mmHg 75%
    21:00 +21°C° 0.1 mm 1 mps 749 mmHg 76%
    22:00 +20°C° 0.1 mm 1 mps 749 mmHg 77%
    23:00 +19°C° 0.1 mm 1 mps 749 mmHg 78%
    Show more